ADR3575 EPWA-LJLJ

Flight info

Callsign ADR3575
Flight time 1h 15m
Altitude 34000
Route EVINA N744 TUSIN DCT MIKOV DCT RADLY DCT OFROZ OFROZ1R
Aircraft A319/M-SDE3FGHIRWY/LB1

Departure

Time 2026-05-06 15:15
Airport Warsaw Chopin Airport (EPWA)

Arrival

Time 2026-05-06 16:31
Airport Ljubljana Jože Pučnik Airport (LJLJ)
Time Latitude Longitude Altitude Speed Heading
2026-05-06 14:41 52.17000 20.97142 337 ft 0 kts 70°
2026-05-06 15:05 52.16998 20.97136 339 ft 2 kts 70°
2026-05-06 15:05 52.16990 20.97100 334 ft 3 kts 69°
2026-05-06 15:05 52.16983 20.97072 339 ft 2 kts 69°
2026-05-06 15:06 52.16980 20.97059 337 ft 3 kts 74°
2026-05-06 15:06 52.16978 20.97021 336 ft 3 kts 110°
2026-05-06 15:06 52.16988 20.96994 338 ft 3 kts 140°
2026-05-06 15:06 52.17000 20.96980 334 ft 1 kts 153°
2026-05-06 15:07 52.17004 20.96977 335 ft 0 kts 153°
2026-05-06 15:10 52.17001 20.96979 339 ft 2 kts 152°
2026-05-06 15:10 52.16985 20.96993 337 ft 5 kts 153°
2026-05-06 15:10 52.16939 20.97032 337 ft 10 kts 151°
2026-05-06 15:11 52.16868 20.97094 336 ft 12 kts 150°
2026-05-06 15:11 52.16792 20.97162 337 ft 12 kts 151°
2026-05-06 15:11 52.16705 20.97239 337 ft 15 kts 151°
2026-05-06 15:11 52.16611 20.97319 337 ft 13 kts 152°
2026-05-06 15:12 52.16570 20.97387 338 ft 14 kts 119°
2026-05-06 15:12 52.16523 20.97559 336 ft 16 kts 114°
2026-05-06 15:12 52.16459 20.97780 335 ft 19 kts 114°
2026-05-06 15:12 52.16416 20.97936 335 ft 21 kts 114°
2026-05-06 15:13 52.16350 20.98175 338 ft 18 kts 115°
2026-05-06 15:13 52.16307 20.98319 334 ft 8 kts 117°
2026-05-06 15:13 52.16289 20.98375 337 ft 10 kts 117°
2026-05-06 15:13 52.16216 20.98461 337 ft 12 kts 203°
2026-05-06 15:14 52.16161 20.98415 336 ft 14 kts 206°
2026-05-06 15:14 52.16116 20.98344 332 ft 8 kts 271°
2026-05-06 15:14 52.16170 20.98154 335 ft 42 kts 295°
2026-05-06 15:14 52.16292 20.97720 335 ft 87 kts 294°
2026-05-06 15:15 52.16795 20.95929 391 ft 161 kts 295°
2026-05-06 15:15 52.17320 20.94139 1122 ft 157 kts 295°
2026-05-06 15:15 52.17811 20.92365 1722 ft 165 kts 294°
2026-05-06 15:15 52.18257 20.90473 2351 ft 171 kts 278°
2026-05-06 15:16 52.18171 20.88593 2733 ft 186 kts 259°
2026-05-06 15:16 52.17950 20.86418 3278 ft 195 kts 257°
2026-05-06 15:16 52.17753 20.84966 3538 ft 209 kts 255°
2026-05-06 15:16 52.17247 20.81680 4050 ft 233 kts 254°
2026-05-06 15:17 52.16830 20.78967 4591 ft 250 kts 255°
2026-05-06 15:17 52.16430 20.76265 5347 ft 259 kts 256°
2026-05-06 15:17 52.15957 20.73327 6022 ft 271 kts 249°
2026-05-06 15:17 52.15021 20.70614 6891 ft 277 kts 232°
2026-05-06 15:18 52.13586 20.68392 7888 ft 280 kts 217°
2026-05-06 15:18 52.12070 20.66543 8766 ft 283 kts 212°
2026-05-06 15:18 52.10265 20.65135 9634 ft 288 kts 203°
2026-05-06 15:18 52.08422 20.63844 10443 ft 294 kts 204°
2026-05-06 15:19 52.06423 20.62458 10821 ft 319 kts 204°
2026-05-06 15:19 52.04282 20.60975 11352 ft 334 kts 204°
2026-05-06 15:19 52.02141 20.59489 12124 ft 341 kts 205°
2026-05-06 15:19 51.99976 20.57982 12913 ft 347 kts 205°
2026-05-06 15:20 51.97711 20.56409 13685 ft 352 kts 206°
2026-05-06 15:20 51.95437 20.54834 14427 ft 358 kts 207°
2026-05-06 15:20 51.93123 20.53233 15132 ft 363 kts 207°
2026-05-06 15:20 51.90813 20.51632 15821 ft 368 kts 208°
2026-05-06 15:21 51.88438 20.49990 16484 ft 372 kts 208°
2026-05-06 15:21 51.86833 20.48891 16897 ft 376 kts 208°
2026-05-06 15:21 51.84402 20.47227 17525 ft 381 kts 209°
2026-05-06 15:21 51.81938 20.45532 18155 ft 387 kts 210°
2026-05-06 15:22 51.79449 20.43808 18789 ft 391 kts 210°
2026-05-06 15:22 51.76939 20.42073 19407 ft 395 kts 210°
2026-05-06 15:22 51.74395 20.40325 20017 ft 399 kts 210°
2026-05-06 15:22 51.71824 20.38569 20634 ft 402 kts 210°
2026-05-06 15:23 51.68758 20.36489 21301 ft 405 kts 211°
2026-05-06 15:23 51.66657 20.34957 21724 ft 402 kts 217°
2026-05-06 15:23 51.64292 20.32588 22210 ft 402 kts 221°
2026-05-06 15:23 51.61922 20.30165 22773 ft 405 kts 221°
2026-05-06 15:24 51.59527 20.27735 23285 ft 407 kts 221°
2026-05-06 15:24 51.57126 20.25296 23758 ft 410 kts 221°
2026-05-06 15:24 51.54705 20.22837 24220 ft 412 kts 221°
2026-05-06 15:24 51.52300 20.20394 24669 ft 415 kts 221°
2026-05-06 15:25 51.49851 20.17898 25114 ft 418 kts 222°
2026-05-06 15:25 51.47388 20.15388 25564 ft 420 kts 222°
2026-05-06 15:25 51.44878 20.12843 25978 ft 424 kts 222°
2026-05-06 15:25 51.42378 20.10318 26392 ft 426 kts 222°
2026-05-06 15:26 51.39893 20.07808 26791 ft 428 kts 222°
2026-05-06 15:26 51.37361 20.05249 27185 ft 431 kts 222°
2026-05-06 15:26 51.34825 20.02687 27542 ft 432 kts 223°
2026-05-06 15:26 51.32268 20.00115 27870 ft 436 kts 222°
2026-05-06 15:27 51.29693 19.97533 28253 ft 437 kts 222°
2026-05-06 15:27 51.27107 19.94952 28663 ft 439 kts 222°
2026-05-06 15:27 51.24515 19.92366 29039 ft 440 kts 222°
2026-05-06 15:27 51.21906 19.89757 29404 ft 445 kts 222°
2026-05-06 15:28 51.19273 19.87121 29790 ft 445 kts 222°
2026-05-06 15:28 51.16642 19.84492 30125 ft 447 kts 222°
2026-05-06 15:28 51.13967 19.81824 30443 ft 449 kts 222°
2026-05-06 15:28 51.11347 19.79214 30754 ft 452 kts 221°
2026-05-06 15:29 51.08670 19.76551 31045 ft 455 kts 222°
2026-05-06 15:29 51.05973 19.73882 31333 ft 457 kts 221°
2026-05-06 15:29 51.03269 19.71211 31601 ft 459 kts 221°
2026-05-06 15:29 51.00547 19.68520 31926 ft 460 kts 221°
2026-05-06 15:30 50.97830 19.65832 32315 ft 459 kts 221°
2026-05-06 15:30 50.95088 19.63125 32670 ft 460 kts 221°
2026-05-06 15:30 50.92358 19.60442 33050 ft 460 kts 221°
2026-05-06 15:30 50.89600 19.57738 33426 ft 459 kts 221°
2026-05-06 15:31 50.86927 19.55114 33779 ft 458 kts 221°
2026-05-06 15:31 50.84217 19.52449 34084 ft 459 kts 221°
2026-05-06 15:31 50.81546 19.49828 34164 ft 453 kts 221°
2026-05-06 15:32 50.73577 19.42056 34164 ft 444 kts 221°
2026-05-06 15:32 50.68355 19.36965 34166 ft 443 kts 221°
2026-05-06 15:33 50.63039 19.31802 34164 ft 443 kts 221°
2026-05-06 15:33 50.57742 19.26669 34159 ft 443 kts 221°
2026-05-06 15:34 50.52569 19.21648 34182 ft 444 kts 221°
2026-05-06 15:34 50.47282 19.16551 34185 ft 445 kts 221°
2026-05-06 15:35 50.41985 19.11470 34187 ft 444 kts 221°
2026-05-06 15:35 50.36752 19.06450 34183 ft 442 kts 221°
2026-05-06 15:36 50.31517 19.01444 34177 ft 440 kts 221°
2026-05-06 15:36 50.26269 18.96430 34177 ft 441 kts 221°
2026-05-06 15:37 50.21024 18.91429 34183 ft 441 kts 221°
2026-05-06 15:37 50.15783 18.86457 34189 ft 440 kts 220°
2026-05-06 15:38 50.10560 18.81531 34184 ft 438 kts 220°
2026-05-06 15:38 50.05345 18.76623 34179 ft 436 kts 220°
2026-05-06 15:39 50.00163 18.71737 34165 ft 434 kts 220°
2026-05-06 15:39 49.94958 18.66834 34157 ft 434 kts 220°
2026-05-06 15:40 49.89774 18.61999 34151 ft 433 kts 219°
2026-05-06 15:40 49.84796 18.56829 34143 ft 420 kts 231°
2026-05-06 15:41 49.82823 18.53659 34143 ft 409 kts 240°
2026-05-06 15:41 49.81018 18.50193 34141 ft 408 kts 240°
2026-05-06 15:41 49.77434 18.43360 34134 ft 408 kts 239°
2026-05-06 15:42 49.73861 18.36597 34120 ft 406 kts 240°
2026-05-06 15:42 49.70271 18.29827 34123 ft 406 kts 239°
2026-05-06 15:43 49.66682 18.23089 34122 ft 406 kts 239°
2026-05-06 15:43 49.63090 18.16340 34118 ft 406 kts 239°
2026-05-06 15:44 49.59499 18.09587 34122 ft 408 kts 239°
2026-05-06 15:44 49.55867 18.02789 34119 ft 407 kts 239°
2026-05-06 15:45 49.52260 17.96072 34119 ft 406 kts 239°
2026-05-06 15:45 49.48651 17.89377 34138 ft 409 kts 239°
2026-05-06 15:46 49.45039 17.82636 34140 ft 407 kts 238°
2026-05-06 15:46 49.42002 17.77034 34144 ft 406 kts 238°
2026-05-06 15:47 49.38404 17.70393 34129 ft 404 kts 238°
2026-05-06 15:47 49.34809 17.63750 34123 ft 405 kts 238°
2026-05-06 15:48 49.31198 17.57115 34120 ft 404 kts 238°
2026-05-06 15:48 49.27584 17.50505 34115 ft 405 kts 238°
2026-05-06 15:49 49.23950 17.43858 34114 ft 404 kts 237°
2026-05-06 15:49 49.20341 17.37266 34114 ft 406 kts 237°
2026-05-06 15:50 49.16702 17.30657 34126 ft 405 kts 237°
2026-05-06 15:50 49.13076 17.24091 34122 ft 404 kts 237°
2026-05-06 15:51 49.09456 17.17524 34121 ft 403 kts 237°
2026-05-06 15:51 49.05838 17.10992 34108 ft 402 kts 237°
2026-05-06 15:52 49.02195 17.04444 34106 ft 402 kts 236°
2026-05-06 15:52 48.98568 16.97926 34108 ft 403 kts 236°
2026-05-06 15:53 48.94949 16.91430 34101 ft 403 kts 236°
2026-05-06 15:53 48.91281 16.84857 34101 ft 402 kts 236°
2026-05-06 15:54 48.87694 16.78452 34096 ft 403 kts 236°
2026-05-06 15:54 48.84033 16.71959 34100 ft 402 kts 235°
2026-05-06 15:55 48.80381 16.65523 34102 ft 403 kts 233°
2026-05-06 15:55 48.75857 16.60297 34088 ft 418 kts 212°
2026-05-06 15:56 48.70528 16.56621 34084 ft 420 kts 210°
2026-05-06 15:56 48.65189 16.52973 34089 ft 424 kts 211°
2026-05-06 15:57 48.59823 16.49277 34099 ft 423 kts 210°
2026-05-06 15:57 48.54450 16.45596 34097 ft 424 kts 210°
2026-05-06 15:58 48.49085 16.41932 34100 ft 423 kts 210°
2026-05-06 15:58 48.43715 16.38266 34101 ft 423 kts 210°
2026-05-06 15:59 48.38343 16.34611 34102 ft 423 kts 210°
2026-05-06 15:59 48.32975 16.30971 34101 ft 422 kts 210°
2026-05-06 16:00 48.27624 16.27355 34097 ft 421 kts 209°
2026-05-06 16:00 48.22284 16.23754 34088 ft 419 kts 209°
2026-05-06 16:01 48.16960 16.20164 34077 ft 420 kts 209°
2026-05-06 16:01 48.11630 16.16573 34078 ft 420 kts 209°
2026-05-06 16:02 48.06242 16.12956 34078 ft 421 kts 209°
2026-05-06 16:02 48.00898 16.09386 34073 ft 421 kts 209°
2026-05-06 16:03 47.95544 16.05807 34075 ft 421 kts 209°
2026-05-06 16:03 47.90203 16.02255 34075 ft 421 kts 208°
2026-05-06 16:04 47.84858 15.98716 34067 ft 420 kts 209°
2026-05-06 16:04 47.79534 15.95172 34063 ft 419 kts 209°
2026-05-06 16:05 47.74201 15.91632 34067 ft 420 kts 209°
2026-05-06 16:05 47.68853 15.88109 34058 ft 418 kts 209°
2026-05-06 16:06 47.63521 15.84604 34050 ft 419 kts 208°
2026-05-06 16:06 47.60854 15.82849 33618 ft 419 kts 208°
2026-05-06 16:06 47.58189 15.81098 33175 ft 419 kts 208°
2026-05-06 16:07 47.55535 15.79359 32711 ft 415 kts 208°
2026-05-06 16:07 47.52898 15.77630 32268 ft 412 kts 208°
2026-05-06 16:07 47.50291 15.75928 31828 ft 409 kts 208°
2026-05-06 16:07 47.47688 15.74236 31399 ft 406 kts 208°
2026-05-06 16:08 47.45116 15.72566 30971 ft 403 kts 207°
2026-05-06 16:08 47.42567 15.70904 30555 ft 398 kts 207°
2026-05-06 16:08 47.40863 15.69788 30283 ft 396 kts 207°
2026-05-06 16:08 47.38370 15.68157 29876 ft 393 kts 207°
2026-05-06 16:09 47.35874 15.66526 29493 ft 389 kts 207°
2026-05-06 16:09 47.33374 15.64894 29092 ft 386 kts 207°
2026-05-06 16:09 47.30930 15.63305 28716 ft 383 kts 207°
2026-05-06 16:09 47.28498 15.61735 28342 ft 379 kts 207°
2026-05-06 16:10 47.26100 15.60196 27983 ft 374 kts 207°
2026-05-06 16:10 47.23721 15.58659 27609 ft 372 kts 207°
2026-05-06 16:10 47.21356 15.57129 27240 ft 370 kts 207°
2026-05-06 16:10 47.19013 15.55612 26872 ft 367 kts 207°
2026-05-06 16:11 47.16689 15.54109 26497 ft 364 kts 207°
2026-05-06 16:11 47.14381 15.52616 26125 ft 361 kts 207°
2026-05-06 16:11 47.12081 15.51134 25750 ft 358 kts 206°
2026-05-06 16:11 47.09804 15.49671 25350 ft 355 kts 206°
2026-05-06 16:12 47.07545 15.48221 24977 ft 352 kts 206°
2026-05-06 16:12 47.05316 15.46788 24577 ft 349 kts 206°
2026-05-06 16:12 47.03102 15.45374 24196 ft 345 kts 206°
2026-05-06 16:12 47.00909 15.43975 23811 ft 342 kts 206°
2026-05-06 16:13 46.98737 15.42586 23421 ft 339 kts 206°
2026-05-06 16:13 46.96576 15.41199 23041 ft 336 kts 206°
2026-05-06 16:13 46.94438 15.39825 22653 ft 333 kts 206°
2026-05-06 16:13 46.92308 15.38457 22268 ft 330 kts 206°
2026-05-06 16:14 46.90208 15.37110 21887 ft 327 kts 206°
2026-05-06 16:14 46.88137 15.35787 21514 ft 325 kts 206°
2026-05-06 16:14 46.86074 15.34469 21143 ft 322 kts 206°
2026-05-06 16:14 46.84020 15.33164 20767 ft 321 kts 206°
2026-05-06 16:15 46.81986 15.31878 20400 ft 319 kts 206°
2026-05-06 16:15 46.79947 15.30589 20039 ft 317 kts 205°
2026-05-06 16:15 46.77932 15.29314 19662 ft 315 kts 205°
2026-05-06 16:15 46.75935 15.28047 19297 ft 313 kts 205°
2026-05-06 16:16 46.73944 15.26776 18931 ft 309 kts 205°
2026-05-06 16:16 46.71982 15.25526 18569 ft 307 kts 205°
2026-05-06 16:16 46.70005 15.24277 18210 ft 307 kts 205°
2026-05-06 16:16 46.68068 15.23058 17853 ft 305 kts 205°
2026-05-06 16:17 46.66096 15.21817 17484 ft 304 kts 205°
2026-05-06 16:17 46.64159 15.20595 17123 ft 303 kts 205°
2026-05-06 16:17 46.62222 15.19393 16769 ft 302 kts 205°
2026-05-06 16:17 46.60292 15.18210 16410 ft 301 kts 204°
2026-05-06 16:18 46.58361 15.17035 16053 ft 299 kts 204°
2026-05-06 16:18 46.56446 15.15873 15700 ft 297 kts 204°
2026-05-06 16:18 46.54544 15.14723 15350 ft 295 kts 204°
2026-05-06 16:18 46.52660 15.13594 15019 ft 289 kts 204°
2026-05-06 16:19 46.50802 15.12468 14672 ft 287 kts 204°
2026-05-06 16:19 46.48964 15.11342 14329 ft 287 kts 204°
2026-05-06 16:19 46.47165 15.10235 13985 ft 283 kts 204°
2026-05-06 16:19 46.45329 15.09117 13658 ft 281 kts 204°
2026-05-06 16:20 46.43546 15.08035 13325 ft 278 kts 204°
2026-05-06 16:20 46.41763 15.06956 12990 ft 276 kts 204°
2026-05-06 16:20 46.39995 15.05889 12662 ft 275 kts 204°
2026-05-06 16:20 46.38232 15.04827 12348 ft 273 kts 204°
2026-05-06 16:21 46.36479 15.03770 12026 ft 272 kts 204°
2026-05-06 16:21 46.34711 15.02703 11687 ft 272 kts 204°
2026-05-06 16:21 46.32937 15.01630 11386 ft 270 kts 204°
2026-05-06 16:21 46.31236 15.00535 11090 ft 266 kts 210°
2026-05-06 16:22 46.29697 14.99063 10778 ft 264 kts 216°
2026-05-06 16:22 46.28199 14.97538 10462 ft 263 kts 216°
2026-05-06 16:22 46.26701 14.96012 10147 ft 264 kts 216°
2026-05-06 16:22 46.25202 14.94483 9830 ft 263 kts 216°
2026-05-06 16:23 46.23688 14.92950 9500 ft 262 kts 216°
2026-05-06 16:23 46.22189 14.91436 9176 ft 262 kts 215°
2026-05-06 16:23 46.20961 14.90218 8914 ft 262 kts 213°
2026-05-06 16:23 46.19434 14.88773 8596 ft 261 kts 215°
2026-05-06 16:24 46.17946 14.87277 8277 ft 260 kts 216°
2026-05-06 16:24 46.16482 14.85770 7970 ft 255 kts 216°
2026-05-06 16:24 46.15017 14.84256 7627 ft 250 kts 215°
2026-05-06 16:24 46.13614 14.82805 7315 ft 246 kts 214°
2026-05-06 16:25 46.12216 14.81389 6999 ft 244 kts 215°
2026-05-06 16:25 46.10827 14.79996 6682 ft 243 kts 214°
2026-05-06 16:25 46.09440 14.78609 6362 ft 242 kts 214°
2026-05-06 16:25 46.08256 14.76991 6057 ft 244 kts 239°
2026-05-06 16:26 46.07931 14.74529 5724 ft 248 kts 279°
2026-05-06 16:26 46.08340 14.73001 5503 ft 246 kts 301°
2026-05-06 16:26 46.09670 14.70359 5073 ft 240 kts 306°
2026-05-06 16:26 46.10342 14.69076 4854 ft 237 kts 306°
2026-05-06 16:27 46.11337 14.67180 4551 ft 230 kts 306°
2026-05-06 16:27 46.12284 14.65364 4248 ft 223 kts 306°
2026-05-06 16:27 46.13204 14.63590 4018 ft 211 kts 306°
2026-05-06 16:27 46.14068 14.61925 3707 ft 204 kts 306°
2026-05-06 16:28 46.14973 14.60174 3354 ft 196 kts 306°
2026-05-06 16:28 46.15766 14.58631 3079 ft 180 kts 307°
2026-05-06 16:28 46.16448 14.57302 2866 ft 171 kts 307°
2026-05-06 16:28 46.17144 14.55948 2654 ft 164 kts 307°
2026-05-06 16:29 46.17809 14.54649 2432 ft 154 kts 307°
2026-05-06 16:29 46.18430 14.53443 2222 ft 147 kts 307°
2026-05-06 16:29 46.19036 14.52242 1981 ft 145 kts 307°
2026-05-06 16:29 46.19634 14.51070 1807 ft 144 kts 308°
2026-05-06 16:30 46.20232 14.49923 1668 ft 148 kts 306°
2026-05-06 16:30 46.20634 14.49136 1539 ft 147 kts 307°
2026-05-06 16:30 46.21438 14.47577 1270 ft 143 kts 307°
2026-05-06 16:30 46.21999 14.46482 1229 ft 108 kts 306°
2026-05-06 16:31 46.22331 14.45835 1252 ft 39 kts 307°
2026-05-06 16:31 46.22485 14.45545 1254 ft 38 kts 313°
2026-05-06 16:31 46.22657 14.45370 1257 ft 23 kts 333°
2026-05-06 16:31 46.22779 14.45326 1258 ft 12 kts 349°
2026-05-06 16:32 46.22837 14.45318 1264 ft 6 kts 10°
2026-05-06 16:32 46.22891 14.45364 1258 ft 12 kts 34°
2026-05-06 16:32 46.22945 14.45408 1258 ft 9 kts
2026-05-06 16:32 46.22967 14.45380 1258 ft 1 kts 305°
2026-05-06 16:33 46.22972 14.45372 1258 ft 3 kts 308°
2026-05-06 16:33 46.22992 14.45382 1263 ft 1 kts 39°
2026-05-06 16:33 46.23015 14.45407 1258 ft 7 kts 36°
2026-05-06 16:34 46.23029 14.45421 1258 ft 0 kts 36°